カタログに戻る

OPS 3367 B

運用中軍事SSO
NORAD 735·PAYLOAD·🇺🇸 United States

打ち上げ Jan 19, 1964 から Vandenberg Space Force Base

Loading…

次のパス (今後24時間)

TLE

最新Source: Space-Track

元期: Sep 14, 2026, 13:29 UTC

1 00735U 64002C   26257.56212314  .00000052  00000-0  39498-4 0  9997
2 00735  98.9812 184.8922 0017309  50.0662 310.2036 14.28597822259477

AllMySatでOPS 3367 Bをリアルタイム追跡

Download on the App Store